This is the latest recevied weather packets stored in our database for station/object KU9TRY. If no packets are shown the sender has not sent any weather packets the latest 10 day(s).
| Time | Temp. | Humidity | Pressure | Rain* | Wind** | Luminosity | Snow |
|---|---|---|---|---|---|---|---|
| 1787780750 | 26.67° C | 73% | 1014.9 hPa | 0 mm | - | 95 W/m² | - |
| 1787780449 | 26.67° C | 75% | 1014.7 hPa | 0 mm | - | 89 W/m² | - |
| 1787780146 | 26.67° C | 70% | 1014.9 hPa | 0 mm | - | 90 W/m² | - |
| 1787779841 | 26.67° C | 70% | 1014.9 hPa | 0 mm | - | 91 W/m² | - |
| 1787779540 | 26.67° C | 70% | 1015 hPa | 0 mm | - | 90 W/m² | - |
| 1787779235 | 27.22° C | 70% | 1015 hPa | 0 mm | - | 89 W/m² | - |
| 1787778935 | 27.22° C | 72% | 1015.1 hPa | 0 mm | - | 93 W/m² | - |
| 1787778630 | 27.78° C | 70% | 1015.1 hPa | 0 mm | - | 104 W/m² | - |
| 1787778326 | 27.78° C | 70% | 1015.1 hPa | 0 mm | - | 116 W/m² | - |
| 1787778022 | 27.78° C | 69% | 1014.8 hPa | 0 mm | - | 125 W/m² | - |
| 1787777715 | 27.78° C | 70% | 1014.9 hPa | 0 mm | - | 148 W/m² | - |
| 1787777413 | 28.33° C | 69% | 1014.9 hPa | 0 mm | - | 160 W/m² | - |
| 1787777112 | 28.33° C | 71% | 1014.9 hPa | 0 mm | - | 165 W/m² | - |
| 1787776811 | 28.33° C | 69% | 1015 hPa | 0 mm | - | 177 W/m² | - |
| 1787776510 | 28.33° C | 69% | 1015.1 hPa | 0 mm | - | 180 W/m² | - |
| 1787776208 | 28.33° C | 69% | 1015.1 hPa | 0 mm | - | 187 W/m² | - |
| 1787775902 | 27.78° C | 68% | 1015.3 hPa | 0 mm | - | 196 W/m² | - |
| 1787775597 | 27.78° C | 70% | 1015.5 hPa | 0 mm | - | 182 W/m² | - |
| 1787775290 | 28.33° C | 68% | 1015.6 hPa | 0 mm | - | 174 W/m² | - |
| 1787774990 | 28.33° C | 69% | 1015.6 hPa | 0 mm | - | 168 W/m² | - |
| 1787774689 | 28.33° C | 68% | 1015.6 hPa | 0 mm | - | 183 W/m² | - |
| 1787774388 | 28.33° C | 70% | 1015.5 hPa | 0 mm | - | 171 W/m² | - |
| 1787774084 | 28.89° C | 70% | 1015.5 hPa | 0 mm | - | 167 W/m² | - |
| 1787773782 | 28.89° C | 68% | 1015.6 hPa | 0 mm | - | 189 W/m² | - |
| 1787773476 | 28.33° C | 68% | 1015.7 hPa | 0 mm | - | 207 W/m² | - |
* Rain latest hour (hover to see other rain measurements)
** Current wind speed in m/s (hover to see current wind gust speed)